KGDJ

Details ICAO KGDJ
Name GRANBURY MUNI
Region United States
Timezone America/Chicago (UTC-5.0)
Plans Departing 2
Arriving 1
Stats Elevation 778 ft / 237 m (AMSL)
Location 32.444418° -97.816933°
Runways 1
Magnetic Variation 3.913° E
Sunrise 2017-10-23 12:42:31 UTC / 2017-10-23 07:42:31 Local
Sunset 2017-10-23 23:50:53 UTC / 2017-10-23 18:50:53 Local
Advertisement - Login to hide

Runways

ID Width Length Bearing (true) Bearing (mag) Surface Threshold Offset Overrun Length
14 60 ft / 18 m 3,610 ft / 1,100 m 149.78° 145.87° Asphalt 0 ft / 0 m 0 ft / 0 m
32 60 ft / 18 m 3,610 ft / 1,100 m 329.78° 325.87° Asphalt 0 ft / 0 m 0 ft / 0 m

Map

Weather


0- 5 10 15 20 25 30 35+ Temperature / ° C

Clouds and Precipitation
Forecast for 2017-10-24 00:00 UTC. Updated an hour ago

Ground ~20,000 ft ~40,000 ft Winds

METAR

KGDJ 232155Z AUTO 36007KT 10SM CLR 29/08 A3006 RMK AO2 T02890080

TAF

Not found

Frequencies

Recorded 118.92 MHz AWOS 3
Unicom 123.00 MHz CTAF/UNICOM
Warning: Do not use this data for real-world aviation or navigation. No guarantee of current accuracy is given.